GW5619 Weather Reports


time (UTC)temp
F
wind
direction
speed
knots
gust
knots
rain 1hr
in
rain 24hr
in
rain mn
in
humidity
%
barometer
mb
20260510083038 68 355 1.7 1.7 0.00 0.00 0.00 80 1016.1
20260510082535 68 289 0.9 1.7 0.00 0.00 0.00 79 1015.8
20260510082030 68 331 0.9 2.6 0.00 0.00 0.00 79 1016.0
20260510081525 68 13 0.0 0.9 0.00 0.00 0.00 78 1015.9
20260510081021 68 295 1.7 2.6 0.00 0.00 0.00 77 1016.0
20260510080520 68 0 0.9 5.2 0.00 0.00 0.00 75 1016.0
20260510080018 68 285 1.7 1.7 0.00 0.00 0.00 74 1015.9
20260510075515 68 30 0.0 0.0 0.00 0.00 0.00 74 1015.8
20260510075012 68 74 0.9 1.7 0.00 0.00 0.00 73 1015.8
20260510074510 68 357 1.7 3.5 0.00 0.00 0.00 72 1015.9
20260510074005 68 8 0.0 0.9 0.00 0.00 0.00 72 1015.7
20260510073501 68 45 0.0 0.9 0.00 0.00 0.00 71 1015.7
20260510072957 68 83 0.9 2.6 0.00 0.00 0.00 71 1015.8
20260510072454 68 27 0.0 0.0 0.00 0.00 0.00 68 1015.7
20260510071950 68 352 0.9 1.7 0.00 0.00 0.00 67 1015.9
20260510071446 68 35 0.0 1.7 0.00 0.00 0.00 67 1015.6
20260510070944 68 17 0.0 0.9 0.00 0.00 0.00 66 1015.6
20260510070442 68 69 0.9 0.9 0.00 0.00 0.00 66 1015.7
20260510065937 68 65 0.0 0.9 0.00 0.00 0.00 65 1015.6
20260510065434 68 20 0.9 2.6 0.00 0.00 0.00 66 1015.6
20260510064930 68 24 0.0 0.9 0.00 0.00 0.00 66 1015.8
20260510064428 68 41 0.0 0.9 0.00 0.00 0.00 66 1015.7
20260510063925 68 9 0.0 0.9 0.00 0.00 0.00 66 1015.9
20260510063420 68 39 0.0 0.0 0.00 0.00 0.00 66 1015.8
20260510062919 68 24 0.0 0.9 0.00 0.00 0.00 65 1015.9
20260510062413 68 40 0.0 0.0 0.00 0.00 0.00 66 1015.9
20260510061909 68 41 0.0 0.9 0.00 0.00 0.00 65 1015.8
20260510061406 68 53 0.0 0.0 0.00 0.00 0.00 65 1016.0
20260510060902 68 35 0.0 0.0 0.00 0.00 0.00 65 1015.9
20260510060359 68 18 0.0 0.0 0.00 0.00 0.00 64 1015.8
20260510055855 68 30 0.0 0.9 0.00 0.00 0.00 64 1015.8
20260510055356 68 19 0.0 1.7 0.00 0.00 0.00 63 1015.8
20260510054854 68 26 0.0 1.7 0.00 0.00 0.00 64 1016.0
20260510054350 68 0 0.9 0.9 0.00 0.00 0.00 63 1016.2
20260510053845 68 325 0.9 1.7 0.00 0.00 0.00 63 1016.3
20260510053341 68 18 0.0 2.6 0.00 0.00 0.00 63 1016.2
20260510052837 68 30 0.9 2.6 0.00 0.00 0.00 63 1016.1
20260510052333 68 111 0.0 1.7 0.00 0.00 0.00 64 1015.7
20260510051829 68 57 0.0 0.9 0.00 0.00 0.00 64 1016.1
20260510051326 68 36 0.0 0.9 0.00 0.00 0.00 64 1015.9
20260510050823 68 25 0.0 0.0 0.00 0.00 0.00 63 1016.2
20260510050320 68 17 0.0 1.7 0.00 0.00 0.00 62 1015.8
20260510045817 67 336 0.9 1.7 0.00 0.00 0.00 62 1015.8
20260510045314 68 36 0.0 0.0 0.00 0.00 0.00 62 1015.9
20260510044811 68 5 0.0 0.0 0.00 0.00 0.00 62 1015.7
20260510044308 68 26 0.0 0.0 0.00 0.00 0.00 61 1015.7
20260510043804 67 0 1.7 2.6 0.00 0.00 0.00 61 1015.6
20260510043300 68 28 0.0 0.0 0.00 0.00 0.00 61 1015.6
20260510042758 67 61 0.0 0.0 0.00 0.00 0.00 60 1015.5
20260510042253 67 15 0.0 0.9 0.00 0.00 0.00 60 1015.3
20260510041750 67 52 0.0 0.9 0.00 0.00 0.00 60 1015.4
20260510041247 67 14 0.9 0.9 0.00 0.00 0.00 61 1015.2
20260510040745 68 34 0.0 0.9 0.00 0.00 0.00 59 1015.3
20260510040242 68 29 0.0 0.9 0.00 0.00 0.00 60 1015.4
20260510035737 67 38 0.0 0.0 0.00 0.00 0.00 60 1015.2
20260510035233 68 44 0.0 0.0 0.00 0.00 0.00 58 1015.2
20260510034729 68 40 0.0 0.0 0.00 0.00 0.00 56 1015.2
20260510034227 68 32 0.0 2.6 0.00 0.00 0.00 56 1015.0
20260510033722 68 36 0.0 0.0 0.00 0.00 0.00 57 1015.0
20260510033221 68 12 0.0 0.9 0.00 0.00 0.00 57 1014.9
20260510032717 67 41 0.0 0.9 0.00 0.00 0.00 60 1014.8
20260510032212 67 18 0.0 0.0 0.00 0.00 0.00 61 1015.1
20260510031707 66 36 0.0 0.0 0.00 0.00 0.00 60 1014.9
20260510031204 66 45 0.0 0.0 0.00 0.00 0.00 61 1014.9
20260510030658 66 34 0.0 0.0 0.00 0.00 0.00 61 1015.0
20260510030156 66 54 0.0 0.0 0.00 0.00 0.00 62 1014.9
20260510025653 66 39 0.0 0.0 0.00 0.00 0.00 61 1014.6
20260510025150 66 38 0.0 0.0 0.00 0.00 0.00 62 1014.7
20260510024647 66 43 0.0 0.0 0.00 0.00 0.00 61 1014.6
20260510024143 66 45 0.0 0.0 0.00 0.00 0.00 61 1014.4
20260510023639 66 36 0.0 0.0 0.00 0.00 0.00 60 1014.4
20260510023137 66 40 0.0 0.0 0.00 0.00 0.00 59 1014.4
20260510022636 66 41 0.0 0.0 0.00 0.00 0.00 58 1014.1
20260510022132 67 20 0.0 0.0 0.00 0.00 0.00 55 1014.3
20260510021628 67 43 0.0 0.0 0.00 0.00 0.00 54 1013.9
20260510021126 67 40 0.0 0.0 0.00 0.00 0.00 54 1013.8
20260510020619 67 36 0.0 0.0 0.00 0.00 0.00 53 1013.7
20260510020115 67 42 0.0 0.0 0.00 0.00 0.00 50 1013.8
20260510015611 67 37 0.0 0.0 0.00 0.00 0.00 50 1013.6
20260510015108 68 39 0.0 0.0 0.00 0.00 0.00 51 1013.6
20260510014603 68 39 0.0 0.0 0.00 0.00 0.00 49 1013.4
20260510014101 68 44 0.0 0.0 0.00 0.00 0.00 48 1013.4
20260510013555 68 36 0.0 0.0 0.00 0.00 0.00 49 1013.4
20260510013052 68 48 0.0 0.0 0.00 0.00 0.00 49 1013.2
20260510012551 68 37 0.0 0.0 0.00 0.00 0.00 49 1013.4
20260510012048 68 36 0.0 0.0 0.00 0.00 0.00 50 1013.1
20260510011547 69 39 0.0 0.0 0.00 0.00 0.00 50 1013.2
20260510011043 69 36 0.0 0.0 0.00 0.00 0.00 48 1013.3
20260510010540 69 40 0.0 0.0 0.00 0.00 0.00 50 1013.2
20260510010037 69 43 0.0 0.0 0.00 0.00 0.00 47 1012.9
20260510005533 69 41 0.0 0.0 0.00 0.00 0.00 46 1013.1
20260510005031 70 41 0.0 0.0 0.00 0.00 0.00 46 1013.0
20260510004528 70 42 0.0 0.0 0.00 0.00 0.00 44 1013.0
20260510004026 70 42 0.0 0.0 0.00 0.00 0.00 46 1013.1
20260510003522 71 34 0.0 0.0 0.00 0.00 0.00 43 1012.8
20260510003018 71 43 0.0 0.0 0.00 0.00 0.00 44 1012.8
20260510002514 72 43 0.0 0.0 0.00 0.00 0.00 44 1012.9
20260510002011 72 39 0.0 0.0 0.00 0.00 0.00 44 1012.8
20260510001508 73 39 0.0 0.0 0.00 0.00 0.00 45 1012.7
20260510001006 74 39 0.0 0.0 0.00 0.00 0.00 44 1012.9
20260510000501 75 38 0.0 0.0 0.00 0.00 0.00 42 1012.7
20260509235958 75 37 0.0 0.0 0.00 0.00 0.00 41 1012.7
20260509235455 76 34 0.0 0.0 0.00 0.00 0.00 40 1012.7
20260509234951 77 31 0.0 0.0 0.00 0.00 0.00 39 1012.7
20260509234448 78 39 0.0 0.0 0.00 0.00 0.00 40 1012.6
20260509233946 79 43 0.0 0.0 0.00 0.00 0.00 39 1012.7
20260509233443 80 33 0.0 0.0 0.00 0.00 0.00 37 1012.5
20260509232939 85 20 0.0 0.0 0.00 0.00 0.00 31 1012.6
20260509232437 84 22 0.0 0.0 0.00 0.00 0.00 32 1012.6
20260509231932 84 21 0.0 0.0 0.00 0.00 0.00 32 1012.5
20260509231430 85 25 0.0 0.9 0.00 0.00 0.00 35 1012.5
20260509230928 84 357 0.0 0.9 0.00 0.00 0.00 29 1012.5
20260509230424 85 23 0.0 1.7 0.00 0.00 0.00 34 1012.5
20260509225920 86 21 0.0 0.0 0.00 0.00 0.00 31 1012.4
20260509225417 89 19 0.0 0.0 0.00 0.00 0.00 32 1012.3
20260509224913 88 14 0.0 0.0 0.00 0.00 0.00 32 1012.3
20260509224413 86 24 0.0 0.0 0.00 0.00 0.00 31 1012.3
20260509223911 87 25 0.0 0.0 0.00 0.00 0.00 32 1012.3
20260509223408 89 25 0.0 0.0 0.00 0.00 0.00 36 1012.2
20260509222905 88 347 0.0 0.0 0.00 0.00 0.00 25 1012.3
20260509222400 85 25 0.0 0.0 0.00 0.00 0.00 28 1012.2
20260509221855 85 24 0.0 0.0 0.00 0.00 0.00 25 1012.3
20260509221353 88 35 0.0 0.0 0.00 0.00 0.00 31 1012.2
20260509220849 88 14 0.0 0.0 0.00 0.00 0.00 31 1012.2
20260509220345 87 14 0.0 0.9 0.00 0.00 0.00 25 1012.3
20260509215840 87 7 0.0 0.9 0.00 0.00 0.00 31 1012.3
20260509215337 87 49 0.0 0.0 0.00 0.00 0.00 27 1012.3
20260509214834 88 11 0.0 1.7 0.00 0.00 0.00 24 1012.4
20260509214332 87 25 0.0 0.0 0.00 0.00 0.00 25 1012.2
20260509213829 87 30 0.0 0.0 0.00 0.00 0.00 24 1012.4
20260509213324 87 309 1.7 2.6 0.00 0.00 0.00 23 1012.5
20260509212821 86 42 0.9 0.9 0.00 0.00 0.00 23 1012.5
20260509212319 85 44 0.9 0.9 0.00 0.00 0.00 27 1012.5
20260509211815 87 109 0.9 1.7 0.00 0.00 0.00 28 1012.4
20260509211311 88 18 0.9 1.7 0.00 0.00 0.00 26 1012.4
20260509210808 86 36 0.0 0.9 0.00 0.00 0.00 26 1012.5
20260509210305 88 8 0.0 0.0 0.00 0.00 0.00 27 1012.5
20260509205804 87 342 0.9 0.9 0.00 0.00 0.00 23 1012.7
20260509205300 87 36 1.7 3.5 0.00 0.00 0.00 25 1013.0
20260509204756 87 288 2.6 2.6 0.00 0.00 0.00 22 1012.8
20260509204252 87 297 0.9 1.7 0.00 0.00 0.00 26 1012.8
20260509203748 89 333 1.7 2.6 0.00 0.00 0.00 24 1013.0
20260509203246 88 344 0.9 1.7 0.00 0.00 0.00 28 1012.9
20260509202742 89 53 0.9 0.9 0.00 0.00 0.00 28 1013.1
20260509202238 89 322 0.9 1.7 0.00 0.00 0.00 30 1012.9
20260509201733 89 4 0.0 1.7 0.00 0.00 0.00 29 1013.2
20260509201229 87 30 0.0 0.9 0.00 0.00 0.00 24 1013.0
20260509200726 88 38 0.0 0.9 0.00 0.00 0.00 25 1013.3
20260509200221 89 15 0.0 0.9 0.00 0.00 0.00 27 1013.4
20260509195717 88 9 0.0 0.0 0.00 0.00 0.00 28 1013.1
20260509195213 87 314 1.7 1.7 0.00 0.00 0.00 28 1013.5
20260509194712 86 32 0.0 0.9 0.00 0.00 0.00 25 1013.7
20260509194209 87 23 0.0 0.0 0.00 0.00 0.00 26 1013.7
20260509193707 85 288 0.0 1.7 0.00 0.00 0.00 33 1013.5
20260509193206 87 43 0.9 1.7 0.00 0.00 0.00 26 1013.5
20260509192703 86 16 0.0 0.9 0.00 0.00 0.00 26 1013.5
20260509192158 84 238 0.0 0.9 0.00 0.00 0.00 27 1013.6
20260509191653 85 19 0.0 1.7 0.00 0.00 0.00 26 1013.6
20260509191150 85 319 0.0 0.9 0.00 0.00 0.00 34 1013.6
20260509190646 85 300 1.7 2.6 0.00 0.00 0.00 28 1013.6
20260509190143 83 312 1.7 2.6 0.00 0.00 0.00 28 1013.6
20260509185641 84 83 0.9 0.9 0.00 0.00 0.00 25 1013.5
20260509185137 83 348 0.0 0.9 0.00 0.00 0.00 26 1013.6
20260509184635 83 332 0.0 1.7 0.00 0.00 0.00 25 1013.6
20260509184131 82 334 1.7 2.6 0.00 0.00 0.00 27 1013.6
20260509183628 81 15 0.0 3.5 0.00 0.00 0.00 29 1013.6
20260509183123 82 359 1.7 3.5 0.00 0.00 0.00 32 1013.5
20260509182619 82 277 1.7 2.6 0.00 0.00 0.00 29 1013.7
20260509182116 80 27 0.0 0.0 0.00 0.00 0.00 29 1013.6
20260509181615 79 68 0.0 0.9 0.00 0.00 0.00 29 1013.6
20260509181112 79 109 0.9 1.7 0.00 0.00 0.00 29 1013.4
20260509180608 78 101 0.9 1.7 0.00 0.00 0.00 31 1013.5
20260509180105 78 105 0.0 0.9 0.00 0.00 0.00 32 1013.6
20260509175600 78 81 0.0 0.9 0.00 0.00 0.00 35 1013.4
20260509175058 78 82 0.9 1.7 0.00 0.00 0.00 30 1013.4
20260509174554 78 98 0.0 1.7 0.00 0.00 0.00 33 1013.3
20260509174049 76 307 2.6 2.6 0.00 0.00 0.00 39 1013.2
20260509173544 77 159 1.7 2.6 0.00 0.00 0.00 34 1013.3
20260509173041 77 0 0.9 2.6 0.00 0.00 0.00 37 1013.4
20260509172538 77 294 1.7 2.6 0.00 0.00 0.00 42 1013.5
20260509172033 77 18 0.0 0.0 0.00 0.00 0.00 42 1013.7
20260509171530 77 28 0.0 2.6 0.00 0.00 0.00 38 1013.7
20260509171026 77 50 0.0 0.9 0.00 0.00 0.00 41 1013.6
20260509170522 76 46 0.0 0.0 0.00 0.00 0.00 42 1013.5
20260509170018 76 23 0.0 1.7 0.00 0.00 0.00 48 1013.5
20260509165517 75 14 0.0 0.0 0.00 0.00 0.00 43 1013.6
20260509165012 75 265 0.9 1.7 0.00 0.00 0.00 47 1013.7
20260509164509 75 348 0.9 1.7 0.00 0.00 0.00 41 1013.8
20260509164004 75 40 1.7 2.6 0.00 0.00 0.00 40 1013.4
20260509163502 75 335 0.9 1.7 0.00 0.00 0.00 44 1013.5
20260509163001 74 55 0.0 0.9 0.00 0.00 0.00 50 1013.5
20260509162500 74 55 0.0 2.6 0.00 0.00 0.00 52 1013.5
20260509161955 74 323 1.7 1.7 0.00 0.00 0.00 48 1013.8
20260509161452 74 22 0.9 0.9 0.00 0.00 0.00 45 1013.5
20260509160947 74 30 0.0 0.9 0.00 0.00 0.00 45 1013.5
20260509160443 75 53 0.0 0.9 0.00 0.00 0.00 58 1013.4
20260509155939 73 63 0.9 1.7 0.00 0.00 0.00 59 1013.6
20260509155436 73 54 0.0 0.0 0.00 0.00 0.00 54 1013.6
20260509154932 72 43 0.0 0.9 0.00 0.00 0.00 51 1013.5
20260509154428 72 33 0.0 0.9 0.00 0.00 0.00 55 1013.5
20260509153926 71 21 0.9 1.7 0.00 0.00 0.00 58 1013.5
20260509153423 70 287 1.7 6.1 0.00 0.00 0.00 60 1013.4
20260509152920 70 202 1.7 2.6 0.00 0.00 0.00 59 1013.5
20260509152415 69 11 0.0 2.6 0.00 0.00 0.00 64 1013.4
20260509151913 69 211 1.7 5.2 0.00 0.00 0.00 63 1013.5
20260509151408 69 290 1.7 2.6 0.00 0.00 0.00 65 1013.5
20260509150907 68 51 0.0 1.7 0.00 0.00 0.00 67 1013.5
20260509150404 69 114 2.6 5.2 0.00 0.00 0.00 67 1013.4
20260509145903 69 301 0.9 3.5 0.00 0.00 0.00 69 1013.4
20260509145402 69 47 0.0 0.0 0.00 0.00 0.00 69 1013.6
20260509144858 68 65 0.0 0.0 0.00 0.00 0.00 72 1013.4
20260509144355 68 288 0.9 1.7 0.00 0.00 0.00 70 1013.4
20260509143852 68 308 1.7 3.5 0.00 0.00 0.00 69 1013.4
20260509143350 68 45 1.7 6.1 0.00 0.00 0.00 68 1013.4
20260509142846 68 43 0.9 1.7 0.00 0.00 0.00 69 1013.6
20260509142342 68 36 0.0 1.7 0.00 0.00 0.00 70 1013.3
20260509141837 68 6 0.9 0.9 0.00 0.00 0.00 72 1013.5
20260509141335 68 17 0.0 0.0 0.00 0.00 0.00 71 1013.4
20260509140831 67 67 0.9 1.7 0.00 0.00 0.00 72 1013.4
20260509140328 67 94 0.0 0.0 0.00 0.00 0.00 73 1013.1
20260509135827 67 47 0.0 0.9 0.00 0.00 0.00 74 1013.2
20260509135324 66 61 0.0 1.7 0.00 0.00 0.00 74 1013.2
20260509134821 67 48 0.0 0.0 0.00 0.00 0.00 76 1013.4
20260509134318 66 55 0.0 1.7 0.00 0.00 0.00 75 1013.3
20260509133815 66 81 0.0 2.6 0.00 0.00 0.00 75 1013.1
20260509133311 65 33 0.0 1.7 0.00 0.00 0.00 75 1012.9
20260509132810 65 305 3.5 5.2 0.00 0.00 0.00 76 1013.1
20260509132309 64 285 0.9 1.7 0.00 0.00 0.00 79 1012.9
20260509131805 64 72 0.9 1.7 0.00 0.00 0.00 79 1012.9
20260509131302 63 58 0.0 1.7 0.00 0.00 0.00 80 1012.7
20260509130758 62 42 0.0 0.0 0.00 0.00 0.00 81 1012.7
20260509130254 62 345 1.7 2.6 0.00 0.00 0.00 81 1012.8
20260509125750 62 77 1.7 1.7 0.00 0.00 0.00 83 1012.9
20260509125247 61 355 0.0 1.7 0.00 0.00 0.00 84 1012.7
20260509124744 61 340 0.9 1.7 0.00 0.00 0.00 84 1012.6
20260509124240 60 46 0.0 1.7 0.00 0.00 0.00 85 1012.6
20260509123738 60 25 0.0 0.0 0.00 0.00 0.00 86 1012.7
20260509123235 60 54 0.9 1.7 0.00 0.00 0.00 86 1012.7
20260509122731 60 21 0.0 0.9 0.00 0.00 0.00 85 1012.7
20260509122228 60 41 0.0 0.0 0.00 0.00 0.00 86 1012.6
20260509121725 59 29 0.0 1.7 0.00 0.00 0.00 86 1012.4
20260509121222 59 41 0.0 1.7 0.00 0.00 0.00 87 1012.5
20260509120721 59 40 0.0 0.9 0.00 0.00 0.00 87 1012.3
20260509120218 59 42 0.0 0.9 0.00 0.00 0.00 88 1012.2
20260509115715 58 359 1.7 2.6 0.00 0.00 0.00 89 1012.2
20260509115213 57 48 0.0 0.9 0.00 0.00 0.00 91 1012.1
20260509114711 57 13 0.0 0.9 0.00 0.00 0.00 94 1012.1
20260509114209 56 57 0.0 0.9 0.00 0.00 0.00 94 1011.8
20260509113708 56 16 0.0 0.0 0.00 0.00 0.00 95 1012.0
20260509113204 56 11 0.0 0.9 0.00 0.00 0.00 95 1012.1
20260509112701 55 12 0.0 0.0 0.00 0.00 0.00 96 1012.0
20260509112158 55 29 0.9 1.7 0.00 0.00 0.00 97 1011.8
20260509111655 55 24 0.0 0.0 0.00 0.00 0.00 97 1011.8
20260509111152 55 0 0.0 0.0 0.00 0.00 0.00 97 1011.8
20260509110649 55 16 0.0 0.0 0.00 0.00 0.00 97 1011.7
20260509110146 55 19 0.0 0.0 0.00 0.00 0.00 97 1011.7
20260509105644 55 22 0.0 0.0 0.00 0.00 0.00 97 1011.5
20260509105141 54 25 0.0 0.0 0.00 0.00 0.00 97 1011.7
20260509104638 54 21 0.0 0.0 0.00 0.00 0.00 97 1011.6
20260509104135 54 31 0.0 0.0 0.00 0.00 0.00 97 1011.7
20260509103633 54 14 0.0 0.0 0.00 0.00 0.00 97 1011.8
20260509103131 54 22 0.0 0.0 0.00 0.00 0.00 97 1011.8
20260509102628 54 23 0.0 0.0 0.00 0.00 0.00 96 1011.7
20260509102125 54 19 0.0 0.0 0.00 0.00 0.00 96 1011.5
20260509101621 54 19 0.0 0.0 0.00 0.00 0.00 96 1011.7
20260509101118 54 24 0.0 0.0 0.00 0.00 0.00 96 1011.4
20260509100615 54 19 0.0 0.0 0.00 0.00 0.00 96 1011.5
20260509100112 54 33 0.0 0.0 0.00 0.00 0.00 96 1011.6
20260509095608 54 9 0.0 0.0 0.00 0.00 0.00 96 1011.7
20260509095106 54 24 0.0 0.0 0.00 0.00 0.00 96 1011.4
20260509094602 54 24 0.0 0.0 0.00 0.00 0.00 95 1011.6
20260509094100 54 34 0.0 0.0 0.00 0.00 0.00 95 1011.7
20260509093558 54 28 0.0 0.0 0.00 0.00 0.00 95 1011.7
20260509093055 54 26 0.0 0.0 0.00 0.00 0.00 95 1011.7
20260509092552 54 39 0.0 0.0 0.00 0.00 0.00 95 1012.0
20260509092051 54 39 0.0 0.0 0.00 0.00 0.00 95 1011.8
20260509091548 54 39 0.0 0.0 0.00 0.00 0.00 95 1011.8
20260509091045 55 24 0.0 0.0 0.00 0.00 0.00 95 1012.2
20260509090542 54 24 0.0 0.0 0.00 0.00 0.00 95 1012.0
20260509090040 54 40 0.0 0.0 0.00 0.00 0.00 95 1012.1
20260509085537 54 38 0.0 0.0 0.00 0.00 0.00 95 1012.1
20260509085033 54 9 0.0 0.0 0.00 0.00 0.00 95 1012.2
20260509084530 54 44 0.0 0.0 0.00 0.00 0.00 95 1012.2
20260509084027 54 25 0.0 0.0 0.00 0.00 0.00 95 1012.3
20260509083525 54 22 0.0 0.0 0.00 0.00 0.00 95 1012.3